sat.trackr.live / text

‹ back to catalog

STARLINK-5769

NORAD 55585 · 2023-020S

PAYLOAD ACTIVE UNKNOWN

§ Identity

Operator
Country
US
Launch date
2023-02-12
Launch site
AFETR
Launch vehicle
Mass (kg)
RCS (m²)

Purposes: comms

External: N2YO · Heavens-Above · Gunter

§ Orbital elements

Epoch: 2026-05-25T02:41:56.918112Z

Period
94.27 min
Inclination
43.0044°
Eccentricity
0.0002579
Mean motion
15.27579108 rev/d
Perigee alt
481.3 km
Apogee alt
484.8 km
Semi-major
6,861.2 km
B*
8.8674e-6
RAAN
282.9514°
Arg perigee
284.5802°
Mean anomaly
75.4763°
Rev number
18,072

§ Raw data

STARLINK-57691 55585U 23020S   26145.11246433 -.00000019  00000+0  88674-5 0  99952 55585  43.0044 282.9514 0002579 284.5802  75.4763 15.27579108180723

JSON: /api/v1/satellites/55585 · /tle

For live sub-satellite position, see the globe view (requires WebGL).

§ Visibility from observer

Set your observer location to see the next 7 days of passes ≥ 10°. The values pass through the URL so the page stays shareable.

No JS? Fill the form by hand. The geolocation button needs JavaScript.